Location: Unspecified
(0.0000°N, 0.0000°E)
Time: 21:34:51
(UTC+00:00)

LightSail 2 - Pass Details

Date: 18 January 2020
Orbit: 699 x 723 km, 24.0° (Epoch: 24 February)

Event Time Altitude Azimuth Distance (km) Brightness Sun altitude
Exits shadow 04:35:40 25° 227° (SW) 1,404 6.4 -22.0°
Maximum altitude 04:36:51 28° 204° (SSW) 1,323 6.5 -21.8°
Drops below altitude 10° 04:41:13 10° 145° (SE) 2,176 8.4 -20.7°
Sets 04:43:57 0° 134° (SE) 3,090 9.7 -20.1°
